Tracking 27111 objects as of 29-Mar-2023
HD Live streaming from Space Station
objects crossing your sky now

OBJECT G

Track OBJECT G now!
10-day predictions


NORAD ID: 55254
Int'l Code: 2023-007G
Perigee: 496.2 km
Apogee: 503.7 km
Inclination: 97.4 °
Period: 94.5 minutes
Semi major axis: 6870 km
RCS: Unknown
Launch date: January 15, 2023
Source: People's Republic of China (PRC)
Launch site: Taiyaun Space Center, China (TSC)
Your satellite tracking list
Your tracking list is empty




NASA's NSSDC Master Catalog

Two Line Element Set (TLE):
1 55254U 23007G   23088.07357822  .00024352  00000-0  99550-3 0  9995
2 55254  97.3672 161.3518 0005448  21.8718  94.9418 15.24338020 11106
Source of the keplerian elements: AFSPC